CW0565 Weather Reports


time (UTC)temp
F
wind
direction
speed
knots
gust
knots
rain 1hr
in
rain 24hr
in
rain mn
in
humidity
%
barometer
mb
20260502184509 52 166 3.5 6.1 0.00 0.02 0.02 86 1008.9
20260502183018 52 161 3.5 6.1 0.00 0.02 0.02 84 1008.9
20260502181516 52 163 2.6 6.1 0.00 0.02 0.02 85 1009.1
20260502163017 58 166 2.6 6.1 0.01 0.01 0.01 57 1009.3
20260502161509 61 182 4.3 11.3 0.00 0.00 0.00 38 1009.8
20260502151511 66 242 3.5 10.4 0.00 0.00 0.00 27 1009.9
20260502123015 65 155 9.6 14.8 0.00 0.00 0.00 33 1010.5
20260502121513 65 166 7.8 14.8 0.00 0.00 0.00 33 1010.5
20260502114509 64 164 6.1 11.3 0.00 0.00 0.00 37 1010.7
20260502113009 65 165 6.1 12.2 0.00 0.00 0.00 40 1010.8
20260502111509 65 153 5.2 10.4 0.00 0.00 0.00 36 1010.8
20260502110010 64 130 6.1 9.6 0.00 0.00 0.00 34 1011.0
20260502104509 64 177 6.1 9.6 0.00 0.00 0.00 42 1011.1
20260502103011 65 139 1.7 7.8 0.00 0.00 0.00 31 1011.3
20260502101529 64 164 3.5 9.6 0.00 0.00 0.00 29 1011.7
20260502091511 62 184 4.3 9.6 0.00 0.00 0.00 35 1012.3
20260502071509 51 355 0.0 1.7 0.00 0.00 0.00 57 1013.2
20260502070012 50 355 0.0 0.9 0.00 0.00 0.00 60 1013.3
20260502064511 49 355 0.0 0.9 0.00 0.00 0.00 62 1013.5
20260502063010 47 355 0.0 0.9 0.00 0.00 0.00 64 1013.7
20260502061510 48 355 0.0 0.9 0.00 0.00 0.00 63 1013.9
20260502060013 47 355 0.0 0.9 0.00 0.00 0.00 65 1014.0
20260502054509 45 355 0.0 0.0 0.00 0.00 0.00 68 1014.2
20260502053010 43 355 0.0 0.9 0.00 0.00 0.00 72 1014.3
20260502051510 41 355 0.0 0.9 0.00 0.00 0.00 81 1014.3
20260502050010 38 355 0.0 1.7 0.00 0.00 0.00 84 1014.5
20260502044512 36 355 0.9 4.3 0.00 0.00 0.00 85 1014.6
20260502043010 36 14 1.7 4.3 0.00 0.00 0.00 85 1014.8
20260502041510 36 13 0.0 3.5 0.00 0.00 0.00 85 1015.0
20260502040010 36 15 0.9 3.5 0.00 0.00 0.00 85 1015.2
20260502034520 36 14 0.0 3.5 0.00 0.00 0.00 84 1015.3
20260502033010 36 14 0.9 4.3 0.00 0.00 0.00 84 1015.6
20260502031510 37 28 0.9 4.3 0.00 0.00 0.00 83 1015.9
20260502030010 37 13 1.7 4.3 0.00 0.00 0.00 82 1016.1
20260502024510 38 10 0.0 0.0 0.00 0.00 0.00 82 1016.3
20260502023010 38 9 0.0 1.7 0.00 0.00 0.00 82 1016.6
20260502021509 38 9 0.0 0.0 0.00 0.00 0.00 81 1016.9
20260502020009 38 9 0.0 0.0 0.00 0.00 0.00 80 1017.1
20260502014509 38 9 0.0 0.0 0.00 0.00 0.00 80 1017.1
20260502013010 39 9 0.0 0.9 0.00 0.00 0.00 80 1017.2
20260502011520 39 13 0.0 5.2 0.00 0.00 0.00 80 1017.3
20260502010013 39 17 0.0 3.5 0.00 0.00 0.00 79 1017.7
20260502004510 40 176 0.0 2.6 0.00 0.00 0.00 78 1017.9
20260502003009 40 178 0.0 1.7 0.00 0.00 0.00 77 1018.2
20260502001512 41 178 0.0 1.7 0.00 0.00 0.00 76 1018.3
20260502000010 41 178 0.0 0.9 0.00 0.00 0.00 74 1018.6
20260501234509 42 178 0.0 0.9 0.00 0.00 0.00 73 1018.7
20260501233018 42 178 0.0 1.7 0.00 0.00 0.00 72 1018.8
20260501231509 43 178 0.0 0.9 0.00 0.00 0.00 71 1019.0
20260501230013 44 178 0.0 0.9 0.00 0.00 0.00 70 1019.2
20260501224509 44 178 0.0 1.7 0.00 0.00 0.00 69 1019.3
20260501223010 45 178 0.0 1.7 0.00 0.00 0.00 68 1019.3
20260501221512 46 178 0.0 0.9 0.00 0.00 0.00 67 1019.4
20260501220014 47 178 0.0 0.0 0.00 0.00 0.00 65 1019.6
20260501214510 47 178 0.0 0.0 0.00 0.00 0.00 64 1019.7
20260501213010 48 178 0.0 0.0 0.00 0.00 0.00 62 1019.8
20260501211510 49 178 0.0 1.7 0.00 0.00 0.00 60 1019.9
20260501210015 50 178 0.0 1.7 0.00 0.00 0.00 59 1020.0
20260501204509 51 178 0.0 1.7 0.00 0.00 0.00 58 1020.0
20260501203010 52 178 0.0 2.6 0.00 0.00 0.00 55 1019.9
20260501201509 53 178 0.9 3.5 0.00 0.00 0.00 53 1020.0
20260501200011 54 178 0.9 5.2 0.00 0.00 0.00 51 1020.1
20260501194514 55 173 1.7 6.1 0.00 0.00 0.00 47 1020.1
20260501193009 56 171 3.5 5.2 0.00 0.00 0.00 43 1020.4
20260501191512 56 171 3.5 7.0 0.00 0.00 0.00 41 1020.5
20260501190012 57 188 2.6 6.1 0.00 0.00 0.00 39 1020.5